SCP
0 0 0 0 0 0 0 0 0 0 0 0 0 0 0 0 0 0 0 0 0 0 0 0 0 0 0 0 0 0 0 0 0 0 0 0 0 0 0 0 0 0 0
0 0 0 0 0 0 0 0 0 0 0 0 0 0 0 0 0 0 0 0 0 0 0 0 0 0 0 0 0 0 0 0 0 0 0 0 0 0 0 0 0 0 0
0 0 0 0 0 0 0 0 0 0 0 0 0 0 0 0 0 0 0 0 0 0 0 0 0 0 0 0 0 0 0 0 0 0 0 0 0 0 0 0 0 0 0
0 0 0 0 0 0 0 0 0 0 0 0 0 0 0 0 0 0 0 0 0 0 0 0 0 0 0 0 0 0 0 0 0 0 0 0 0 0 0 0 0 0 0
0 0 0 0 0 0 0 0 0 0 0 0 0 0 0 0 0 0 0 0 0 0 0 0 0 0 0 0 0 0 0 0 0 0 0 0 0 0 0 0 0 0 0
0 0 0 0 0 0 0 0 0 0 0 0 0 0 0 0 0 0 0 0 0 0 0 0 0 0 0 0 0 0 0 0 0 0 0 0 0 0 0 0 0 0 0
0 0 0 0 0 0 0 0 0 0 0 0 0 0 0 0 0 0 0 0 0 0 0 0 0 0 0 0 0 0 0 0 0 0 0 0 0 0 0 0 0 0 0
0 0 0 0 0 0 0 0 0 0 0 0 0 0 0 0 0 0 0 0 0 0 0 0 0 0 0 0 0 0 0 0 0 0 0 0 0 0 0 0 0 0 0
0 0 0 0 0 0 0 0 0 0 0 0 0 0 0 0 0 0 0 0 0 0 0 0 0 0 0 0 0 0 0 0 0 0 0 0 0 0 0 0 0 0 0
0 0 0 0 0 0 0 0 0 0 0 0 0 0 0 0 0 0 0 0 0 0 0 0 0 0 0 0 0 0 0 0 0 0 0 0 0 0 0 0 0 0 0
0 0 0 0 0 0 0 0 0 0 0 0 0 0 0 0 0 0 0 0 0 0 0 0 0 0 0 0 0 0 0 0 0 0 0 0 0 0 0 0 0 0 0
0 0 0 0 0 0 0 0 0 0 0 0 0 0 0 0 0 0 0 0 0 0 0 0 0 0 0 0 0 0 0 0 0 0 0 0 0 0 0 0 0 0 0
0 0 0 0 0 0 0 0 0 0 0 0 0 0 0 0 0 0 0 0 0 0 0 0 0 0 0 0 0 0 0 0 0 0 0 0 0 0 0 0 0 0 0
0 0 0 0 0 0 0 0 0 0 0 0 0 0 0 0 0 0 0 0 0 0 0 0 0 0 0 0 0 0 0 0 0 0 0 0 0 0 0 0 0 0 0
0 0 0 0 0 0 0 0 0 0 0 0 0 0 0 0 0 0 0 0 0 0 0 0 0 0 0 0 0 0 0 0 0 0 0 0 0 0 0 0 0 0 0
0 0 0 0 0 0 0 0 0 0 0 0 0 0 0 0 0 0 0 0 0 0 0 0 0 0 0 0 0 0 0 0 0 0 0 0 0 0 0 0 0 0 0
0 0 0 0 0 0 0 0 0 0 0 0 0 0 0 0 0 0 0 0 0 0 0 0 0 0 0 0 0 0 0 0 0 0 0 0 0 0 0 0 0 0 0
0 0 0 0 0 0 0 0 0 0 0 0 0 0 0 0 0 0 0 0 0 0 0 0 0 0 0 0 0 0 0 0 0 0 0 0 0 0 0 0 0 0 0
0 0 0 0 0 0 0 0 0 0 0 0 0 0 0 0 0 0 0 0 0 0 0 0 0 0 0 0 0 0 0 0 0 0 0 0 0 0 0 0 0 0 0
0 0 0 0 0 0 0 0 0 0 0 0 0 0 0 0 0 0 0 0 0 0 0 0 0 0 0 0 0 0 0 0 0 0 0 0 0 0 0 0 0 0 0
0 0 0 0 0 0 0 0 0 0 0 0 0 0 0 0 0 0 0 0 0 0 0 0 0 0 0 0 0 0 0 0 0 0 0 0 0 0 0 0 0 0 0
0 0 0 0 0 0 0 0 0 0 0 0 0 0 0 0 0 0 0 0 0 0 0 0 0 0 0 0 0 0 0 0 0 0 0 0 0 0 0 0 0 0 0
0 0 0 0 0 0 0 0 0 0 0 0 0 0 0 0 0 0 0 0 0 0 0 0 0 0 0 0 0 0 0 0 0 0 0 0 0 0 0 0 0 0 0
0 0 0 0 0 0 0 0 0 0 0 0 0 0 0 0 0 0 0 0 0 0 0 0 0 0 0 0 0 0 0 0 0 0 0 0 0 0 0 0 0 0 0
0 0 0 0 0 0 0 0 0 0 0 0 0 0 0 0 0 0 0 0 0 0 0 0 0 0 0 0 0 0 0 0 0 0 0 0 0 0 0 0 0 0 0
0 0 0 0 0 0 0 0 0 0 0 0 0 0 0 0 0 0 0 0 0 0 0 0 0 0 0 0 0 0 0 0 0 0 0 0 0 0 0 0 0 0 0
Wind_Speed
7 7 8 7 8 8 9 9 8 7 9 11 12 12 12 13 12 12 12 13 14 11 10 11 10 8 7 6 5 5 4 5 5 3 2 4 6 6 4 4 4 4 4
7 7 8 8 8 9 10 9 8 9 9 10 10 11 12 12 12 13 14 14 15 15 13 13 12 10 10 8 7 6 5 5 6 6 3 3 4 5 5 4 4 4 4
7 8 8 9 10 11 10 9 8 9 9 9 10 12 12 12 12 13 13 14 15 15 15 16 15 15 13 9 9 8 6 5 4 6 4 3 2 3 3 3 4 3 4
8 9 10 11 11 11 9 9 9 9 9 10 10 10 11 11 12 12 12 12 12 12 13 14 15 16 16 14 11 10 8 7 6 6 4 3 3 3 3 3 3 3 4
9 10 13 11 9 9 9 9 8 8 9 9 9 9 9 10 11 12 12 12 13 12 11 11 13 14 17 15 12 12 11 8 6 5 4 3 3 3 4 4 4 2 3
9 11 10 9 8 9 8 8 8 8 8 8 10 10 10 10 14 20 15 12 12 13 13 11 10 12 17 19 19 19 17 12 9 7 5 5 5 5 4 4 3 2 3
8 8 8 8 8 8 8 8 9 9 8 8 9 10 10 13 18 20 19 12 12 13 13 12 10 10 12 11 15 18 15 15 14 9 7 7 6 6 6 5 4 4 4
7 8 7 7 8 7 7 9 8 7 7 8 8 9 9 11 18 19 18 12 10 11 12 13 14 14 13 14 12 10 9 8 10 7 6 6 5 5 6 5 5 3 3
7 7 6 6 7 7 8 8 7 6 6 6 6 8 9 10 16 18 18 8 8 10 10 12 13 14 21 22 14 12 10 7 11 12 10 9 10 10 7 4 3 2 3
7 6 5 5 6 7 7 6 5 5 6 6 6 6 8 7 13 18 18 8 8 8 9 10 14 18 23 24 14 13 12 9 8 7 9 10 8 9 12 7 6 4 3
5 4 3 4 5 5 4 4 4 4 4 5 5 5 6 7 12 17 19 8 9 9 9 8 10 21 23 24 18 12 13 10 9 8 6 5 5 5 6 6 6 5 5
3 2 2 1 1 2 3 3 4 5 4 4 3 3 3 4 7 13 18 16 13 9 8 8 10 21 23 23 17 14 16 12 6 6 6 6 6 6 6 6 6 5 4
2 2 1 1 1 3 4 4 4 4 3 3 3 3 2 3 5 12 15 17 18 9 7 13 16 21 21 17 18 18 12 8 7 7 7 7 6 5 5 4 4 3 2
1 1 1 2 2 2 2 3 3 3 3 3 3 3 3 3 3 4 6 7 11 11 8 11 18 19 15 11 10 11 8 7 8 7 6 5 4 4 5 5 4 4 3
0 1 1 2 2 2 2 2 3 2 3 4 3 3 4 4 6 10 7 6 6 7 8 7 7 7 8 6 6 6 6 6 7 6 6 5 5 5 5 4 4 4 4
1 1 1 1 2 2 3 3 4 3 4 4 4 4 2 4 7 10 12 12 13 14 9 6 7 7 7 7 7 6 6 7 6 6 6 6 6 6 5 4 4 5 5
1 1 2 2 2 2 3 3 3 3 5 4 3 3 3 4 6 8 10 11 12 13 7 5 6 6 6 6 6 6 6 6 6 6 6 6 6 5 5 5 5 5 5
1 2 2 2 2 2 2 3 3 3 2 2 3 4 2 2 3 5 7 8 6 7 3 4 4 4 5 5 5 5 5 5 5 5 5 5 5 6 6 6 6 6 5
3 2 2 3 3 3 3 3 3 4 3 3 3 3 4 3 3 2 4 2 2 2 2 2 2 3 3 3 4 4 5 5 5 5 5 5 6 5 5 6 6 6 6
4 6 5 4 4 4 4 4 4 4 4 4 4 3 3 3 2 2 2 2 2 2 2 2 1 2 2 3 3 3 4 4 5 5 5 5 5 5 6 7 6 6 5
4 5 7 6 5 5 5 5 4 4 4 4 4 4 6 3 3 3 3 3 3 3 2 2 2 2 2 2 2 3 4 4 4 4 5 5 5 5 5 5 6 5 5
5 5 6 6 5 5 5 5 5 5 5 5 4 5 9 5 4 4 4 4 4 3 3 2 1 1 1 2 2 3 3 4 4 4 5 5 5 5 5 5 5 5 5
6 7 7 6 5 6 6 6 6 5 5 4 4 4 4 4 4 3 3 3 2 2 2 2 1 1 1 1 0 2 3 4 4 5 5 5 5 5 5 6 6 6 6
7 7 7 6 6 6 6 5 5 5 4 4 4 3 3 3 3 3 2 2 1 1 1 1 1 0 1 0 0 0 1 1 2 4 6 6 6 5 5 5 6 7 6
6 6 6 6 6 5 5 5 4 4 4 3 3 3 3 2 2 2 1 1 1 1 1 1 1 1 2 3 2 2 3 3 3 3 4 4 6 6 6 6 5 5 6
6 6 6 5 5 4 4 4 3 3 3 3 2 2 2 2 2 2 1 1 1 2 2 2 3 3 4 4 5 6 6 7 7 7 5 4 6 6 6 5 7 6 6
Wind_Direction
209 210 212 215 215 214 218 216 204 193 185 186 189 195 201 202 200 199 196 191 192 190 184 181 179 167 167 163 151 149 145 133 135 145 133 142 156 175 190 196 213 223 247
208 211 216 216 217 221 223 216 203 198 191 187 187 194 200 201 200 200 197 192 192 189 186 180 178 171 168 166 159 157 151 137 135 142 143 146 168 180 184 199 210 217 228
205 210 217 219 219 224 224 216 205 197 191 187 188 196 199 199 199 202 199 196 195 192 186 184 180 173 172 168 163 157 148 133 124 137 144 147 155 168 176 210 224 230 236
205 210 220 224 222 223 220 213 206 196 191 191 193 198 200 199 200 200 199 197 195 193 189 185 180 178 174 168 164 157 148 137 130 135 137 150 165 164 163 203 231 230 239
208 216 226 227 223 219 217 212 204 197 195 187 189 197 199 199 202 198 196 195 193 190 187 185 183 178 172 167 164 160 154 147 147 148 151 155 173 172 190 190 216 235 253
217 225 228 225 220 219 216 208 201 198 192 184 191 196 201 207 207 204 196 194 191 187 184 178 171 167 170 171 169 166 162 158 162 163 169 183 193 188 181 188 199 221 266
230 233 229 225 223 219 210 203 203 198 190 193 195 197 206 213 210 206 200 191 190 188 182 173 168 166 163 160 166 168 170 175 173 168 177 190 185 185 180 193 204 213 229
244 242 235 228 228 219 208 208 204 192 193 196 198 200 205 214 214 208 198 192 188 184 178 173 168 164 166 159 158 162 169 179 183 184 186 187 179 173 179 189 197 218 252
257 250 239 228 227 218 213 210 198 189 192 194 194 198 206 213 214 208 195 186 185 179 173 170 168 165 174 169 164 166 173 189 201 200 200 202 202 200 190 168 175 198 255
268 260 245 226 221 220 215 204 189 186 189 185 195 199 204 207 212 209 197 183 180 174 169 172 175 172 177 176 172 172 181 188 184 196 207 215 214 216 215 201 188 200 221
288 274 253 228 219 213 200 183 171 170 170 178 190 196 201 203 214 211 204 186 181 173 173 174 183 184 183 185 182 184 190 178 179 187 194 197 195 200 204 200 194 200 210
310 304 287 234 181 164 162 158 155 158 166 173 176 185 195 195 206 213 210 201 184 176 179 177 183 188 190 192 191 194 194 181 174 183 195 201 202 201 198 193 194 199 207
342 344 359 55 106 133 146 148 146 151 160 165 167 181 188 190 211 216 213 206 195 182 179 181 184 192 195 197 199 197 191 187 185 194 203 207 201 189 175 174 176 180 194
351 32 86 99 97 106 120 134 145 155 160 162 171 180 179 185 194 196 196 199 197 188 178 183 190 197 198 193 194 200 194 191 194 203 203 192 171 168 175 172 176 176 198
109 98 102 113 121 116 113 126 137 149 166 165 172 174 178 193 207 200 187 187 182 176 163 167 178 182 190 187 187 190 188 189 197 198 193 186 181 180 181 170 169 174 191
179 142 135 127 118 119 116 98 105 115 143 155 157 162 182 203 206 205 204 196 190 180 170 175 181 186 190 190 189 189 191 196 197 195 194 190 188 186 182 173 174 187 202
206 140 127 118 116 117 119 119 112 92 91 96 119 151 163 189 201 201 200 195 191 185 183 180 183 187 189 189 191 193 195 192 186 188 191 187 182 182 181 184 186 191 201
46 81 93 102 108 108 109 111 114 115 106 74 61 70 95 129 170 186 188 182 188 189 180 179 184 185 186 187 189 191 184 176 179 183 184 183 181 182 187 189 189 190 195
42 58 70 77 80 83 85 87 89 92 90 83 63 41 36 69 100 125 157 159 162 169 162 158 163 170 176 178 178 177 177 179 179 181 185 184 182 182 189 189 188 186 185
50 54 63 71 71 68 66 70 72 76 77 71 61 39 21 38 57 54 55 68 87 102 110 124 131 140 151 159 163 167 172 177 180 184 185 183 182 185 188 187 188 187 192
55 56 59 65 63 62 63 62 63 68 69 67 48 31 51 57 56 55 52 49 52 58 62 79 100 117 128 139 151 165 173 178 178 181 182 182 181 186 187 186 187 186 184
58 61 60 62 61 61 61 60 61 63 64 62 43 30 45 52 52 53 52 48 43 41 41 58 74 85 120 154 167 175 183 185 183 183 186 184 182 184 182 183 184 183 182
60 67 66 62 61 63 62 57 59 60 59 54 47 42 40 45 46 48 48 44 41 38 31 40 59 59 45 34 168 189 196 199 192 184 183 183 183 185 184 187 186 182 189
57 64 66 63 60 60 60 57 55 55 53 49 45 44 42 40 38 37 34 31 34 32 27 27 29 239 223 248 287 273 226 197 172 180 183 184 184 184 184 187 189 191 194
55 59 61 59 58 57 56 54 50 46 43 39 34 31 26 23 18 9 4 1 357 338 314 300 275 245 234 233 235 239 240 226 192 175 176 182 184 183 183 186 188 188 192
52 55 55 53 52 50 50 48 42 34 28 19 14 7 358 349 335 322 314 301 291 281 274 266 256 249 244 237 237 237 232 227 209 194 181 182 185 187 183 188 189 189 189